$Date,$Time,DM0201B,DM0203B,DM0205B,DM0207B,DM0209B
08/04/99,00:00:01,68,17,-19,0,960
08/04/99,00:05:01,64,1,-19,0,960
08/04/99,00:10:01,46,2,-19,0,960
08/04/99,00:15:01,86,325,-19,0,960
08/04/99,00:20:01,55,8,-19,0,960
08/04/99,00:25:01,65,11,-19,0,960
08/04/99,00:30:01,22,27,-19,0,960
08/04/99,00:35:01,8,357,-19,0,960
08/04/99,00:40:01,5,8,-19,0,960
08/04/99,00:45:01,39,190,-19,0,960
08/04/99,00:50:01,44,183,-19,0,960
08/04/99,00:55:01,60,193,-19,0,960
08/04/99,01:00:01,81,204,-21,0,960
08/04/99,01:05:01,59,202,-21,0,960
08/04/99,01:10:01,39,202,-21,0,960
08/04/99,01:15:01,37,212,-21,0,960
08/04/99,01:20:01,44,195,-21,0,960
08/04/99,01:25:01,30,158,-21,0,960
08/04/99,01:30:01,16,171,-21,0,960
08/04/99,01:35:01,6,131,-21,0,960
08/04/99,01:40:01,19,34,-21,0,960
08/04/99,01:45:01,23,49,-21,0,960
08/04/99,01:50:01,57,64,-21,0,960
08/04/99,01:55:01,47,65,-21,0,960
08/04/99,02:00:01,22,94,-21,0,960
08/04/99,02:05:01,26,78,-21,0,960
08/04/99,02:10:01,48,99,-21,0,960
08/04/99,02:15:01,58,99,-21,0,960
08/04/99,02:20:01,71,67,-21,0,960
08/04/99,02:25:01,57,56,-21,0,960
08/04/99,02:30:01,27,27,-21,0,960
08/04/99,02:35:01,54,15,-21,0,960
08/04/99,02:40:01,84,28,-19,0,960
08/04/99,02:45:01,98,16,-19,0,960
08/04/99,02:50:01,64,16,-19,0,960
08/04/99,02:55:01,75,16,-19,0,960
08/04/99,03:00:01,63,44,-19,0,960
08/04/99,03:05:01,12,60,-19,0,962
08/04/99,03:10:01,72,28,-21,0,962
08/04/99,03:15:01,72,36,-21,0,962
08/04/99,03:20:01,14,65,-21,0,962
08/04/99,03:25:01,46,66,-21,0,962
08/04/99,03:30:01,35,67,-21,0,962
08/04/99,03:35:01,22,121,-21,0,962
08/04/99,03:40:01,12,92,-21,0,962
08/04/99,03:45:01,25,84,-21,0,962
08/04/99,03:50:01,35,74,-21,0,962
08/04/99,03:55:01,47,51,-21,0,962
08/04/99,04:00:01,34,75,-21,0,962
08/04/99,04:05:01,18,65,-21,0,962
08/04/99,04:10:01,37,51,-21,0,962
08/04/99,04:15:01,27,70,-21,0,962
08/04/99,04:20:01,0,174,-21,0,962
08/04/99,04:25:01,1,176,-21,0,962
08/04/99,04:30:01,32,185,-21,0,962
08/04/99,04:35:01,24,184,-21,0,962
08/04/99,04:40:01,33,193,-21,0,962
08/04/99,04:45:01,17,192,-21,0,962
08/04/99,04:50:01,21,192,-21,0,962
08/04/99,04:55:01,4,194,-21,0,962
08/04/99,05:00:01,1,166,-21,0,962
08/04/99,05:05:01,1,179,-21,0,962
08/04/99,05:10:01,33,189,-21,0,962
08/04/99,05:15:01,41,189,-21,0,962
08/04/99,05:20:01,26,200,-21,0,962
08/04/99,05:25:01,0,200,-21,0,962
08/04/99,05:30:01,30,190,-21,0,962
08/04/99,05:35:01,37,190,-21,0,962
08/04/99,05:40:01,16,190,-21,0,962
08/04/99,05:45:01,58,190,-21,0,962
08/04/99,05:50:01,61,201,-21,0,962
08/04/99,05:55:01,54,201,-21,0,962
08/04/99,06:00:01,32,201,-21,0,962
08/04/99,06:05:01,35,201,-21,0,962
08/04/99,06:10:01,21,201,-21,0,962
08/04/99,06:15:01,43,201,-19,0,962
08/04/99,06:20:01,51,214,-19,0,962
08/04/99,06:25:01,55,214,-19,0,962
08/04/99,06:30:01,32,214,-19,0,962
08/04/99,06:35:01,36,236,-19,0,962
08/04/99,06:40:01,0,210,-19,0,962
08/04/99,06:45:01,6,187,-19,0,962
08/04/99,06:50:01,0,177,-19,0,962
08/04/99,06:55:01,28,177,-19,0,962
08/04/99,07:00:01,7,188,-19,0,962
08/04/99,07:05:01,7,188,-19,0,962
08/04/99,07:10:01,5,188,-19,0,962
08/04/99,07:15:01,0,188,-19,0,962
08/04/99,07:20:01,0,200,-19,0,962
08/04/99,07:25:01,0,198,-19,0,962
08/04/99,07:30:01,47,186,-19,0,962
08/04/99,07:35:01,12,186,-19,0,962
08/04/99,07:40:01,18,186,-19,0,962
08/04/99,07:45:01,25,187,-19,0,962
08/04/99,07:50:01,47,188,-19,0,962
08/04/99,07:55:01,60,188,-19,0,962
08/04/99,08:00:01,28,188,-19,0,962
08/04/99,08:05:01,56,199,-19,0,962
08/04/99,08:10:01,53,189,-19,0,962
08/04/99,08:15:01,55,199,-19,0,962
08/04/99,08:20:01,36,199,-19,0,962
08/04/99,08:25:01,20,178,-19,0,962
08/04/99,08:30:01,14,178,-19,0,962
08/04/99,08:35:01,24,178,-19,0,962
08/04/99,08:40:01,89,178,-19,0,962
08/04/99,08:45:01,99,178,-19,0,962
08/04/99,08:50:01,66,180,-19,0,962
08/04/99,08:55:01,79,169,-19,0,962
08/04/99,09:00:01,51,179,-19,0,962
08/04/99,09:05:01,73,179,-19,0,962
08/04/99,09:10:01,30,190,-19,0,962
08/04/99,09:15:01,49,190,-19,0,962
08/04/99,09:20:01,45,183,-19,0,962
08/04/99,09:25:01,52,195,-19,0,962
08/04/99,09:30:01,37,199,-19,0,962
08/04/99,09:35:01,48,175,-19,0,962
08/04/99,09:40:01,18,185,-19,0,962
08/04/99,09:45:01,45,168,-19,0,962
08/04/99,09:50:01,43,168,-19,0,962
08/04/99,09:55:01,58,179,-19,0,962
08/04/99,10:00:01,51,178,-19,0,962
08/04/99,10:05:01,49,178,-19,0,962
08/04/99,10:10:01,34,166,-19,0,962
08/04/99,10:15:01,23,166,-19,0,962
08/04/99,10:20:01,12,166,-19,0,962
08/04/99,10:25:01,2,296,-19,0,962
08/04/99,10:30:01,12,345,-19,0,962
08/04/99,10:35:01,10,18,-19,0,964
08/04/99,10:40:01,103,28,-21,0,964
08/04/99,10:45:01,46,356,-21,0,964
08/04/99,10:50:01,106,19,-23,0,964
08/04/99,10:55:01,77,20,-25,0,964
08/04/99,11:00:01,119,10,-25,0,964
08/04/99,11:05:01,117,11,-25,0,964
08/04/99,11:10:01,148,11,-25,0,964
08/04/99,11:15:01,114,13,-25,0,964
08/04/99,11:20:01,160,13,-25,0,964
08/04/99,11:25:01,124,27,-25,0,964
08/04/99,11:30:01,144,17,-25,0,964
08/04/99,11:35:01,177,6,-25,0,964
08/04/99,11:40:01,195,17,-25,0,964
08/04/99,11:45:01,181,17,-25,0,964
08/04/99,11:50:01,159,17,-25,0,964
08/04/99,11:55:01,162,17,-25,0,964
08/04/99,12:00:01,144,16,-25,0,964
08/04/99,12:05:01,147,16,-25,0,964
08/04/99,12:10:01,129,14,-25,0,964
08/04/99,12:15:01,147,21,-25,0,964
08/04/99,12:20:01,129,21,-25,0,964
08/04/99,12:25:01,129,21,-25,0,964
08/04/99,12:30:01,109,24,-25,0,964
08/04/99,12:35:01,112,24,-25,0,964
08/04/99,12:40:01,97,24,-25,0,964
08/04/99,12:45:01,102,13,-25,0,964
08/04/99,12:50:01,69,13,-25,0,964
08/04/99,12:55:01,48,3,-25,0,964
08/04/99,13:00:01,36,336,-25,0,964
08/04/99,13:05:01,81,326,-25,0,964
08/04/99,13:10:01,64,340,-25,0,964
08/04/99,13:15:01,48,351,-25,0,964
08/04/99,13:20:01,35,346,-25,0,964
08/04/99,13:25:01,39,321,-25,0,964
08/04/99,13:30:01,42,333,-23,0,964
08/04/99,13:35:01,53,324,-23,0,964
08/04/99,13:40:01,70,324,-23,0,964
08/04/99,13:45:01,57,319,-23,0,964
08/04/99,13:50:01,51,319,-23,0,964
08/04/99,13:55:01,61,319,-23,0,964
08/04/99,14:00:01,40,333,-23,0,964
08/04/99,14:05:01,100,323,-23,0,964
08/04/99,14:10:01,60,305,-23,0,964
08/04/99,14:15:01,72,305,-23,0,964
08/04/99,14:20:01,50,309,-23,0,964
08/04/99,14:25:01,80,299,-23,0,964
08/04/99,14:30:01,68,310,-23,0,964
08/04/99,14:35:01,61,312,-23,0,964
08/04/99,14:40:01,72,323,-23,0,964
08/04/99,14:45:01,79,314,-23,0,964
08/04/99,14:50:01,72,312,-23,0,964
08/04/99,14:55:01,81,300,-23,0,964
08/04/99,15:00:01,71,313,-23,0,964
08/04/99,15:05:01,79,317,-23,0,964
08/04/99,15:10:01,106,299,-23,0,964
08/04/99,15:15:01,104,314,-23,0,964
08/04/99,15:20:01,59,315,-23,0,964
08/04/99,15:25:01,59,335,-23,0,964
08/04/99,15:30:01,68,360,-23,0,964
08/04/99,15:35:01,56,349,-23,0,966
08/04/99,15:40:01,56,349,-23,0,966
08/04/99,15:45:01,41,334,-23,0,966
08/04/99,15:50:01,46,348,-23,0,966
08/04/99,15:55:01,54,1,-23,0,966
08/04/99,16:00:01,45,360,-23,0,966
08/04/99,16:05:01,42,350,-25,0,966
08/04/99,16:10:01,56,349,-25,0,966
08/04/99,16:15:01,60,1,-25,0,966
08/04/99,16:20:01,50,3,-25,0,966
08/04/99,16:25:01,5,14,-25,0,966
08/04/99,16:30:01,5,191,-25,0,966
08/04/99,16:35:01,5,198,-25,0,966
08/04/99,16:40:01,5,179,-27,0,966
08/04/99,16:45:01,0,192,-27,0,966
08/04/99,16:50:01,0,192,-27,0,966
08/04/99,16:55:01,25,242,-27,0,966
08/04/99,17:00:01,0,242,-27,0,966
08/04/99,17:05:01,0,242,-27,0,966
08/04/99,17:10:01,3,277,-25,0,966
08/04/99,17:15:01,50,239,-25,0,966
08/04/99,17:20:01,0,238,-25,0,966
08/04/99,17:25:01,5,250,-25,0,966
08/04/99,17:30:01,28,239,-25,0,966
08/04/99,17:35:01,3,239,-25,0,966
08/04/99,17:40:01,3,283,-25,0,966
08/04/99,17:45:01,3,9,-25,0,966
08/04/99,17:50:01,3,9,-25,0,966
08/04/99,17:55:01,3,23,-25,0,966
08/04/99,18:00:01,3,23,-25,0,966
08/04/99,18:05:01,3,23,-25,0,966
08/04/99,18:10:01,3,23,-25,0,966
08/04/99,18:15:01,4,42,-25,0,966
08/04/99,18:20:01,4,32,-25,0,966
08/04/99,18:25:01,3,157,-25,0,966
08/04/99,18:30:01,3,171,-25,0,966
08/04/99,18:35:01,3,171,-25,0,966
08/04/99,18:40:01,24,144,-25,0,966
08/04/99,18:45:01,1,144,-25,0,966
08/04/99,18:50:01,1,191,-25,0,966
08/04/99,18:55:01,67,202,-25,0,966
08/04/99,19:00:01,0,192,-25,0,966
08/04/99,19:05:01,0,182,-25,0,966
08/04/99,19:10:01,2,182,-25,0,966
08/04/99,19:15:01,27,182,-25,0,966
08/04/99,19:20:01,16,171,-25,0,966
08/04/99,19:25:01,8,49,-25,0,966
08/04/99,19:30:01,7,152,-25,0,966
08/04/99,19:35:01,14,152,-25,0,966
08/04/99,19:40:01,11,152,-25,0,966
08/04/99,19:45:01,0,5,-25,0,966
08/04/99,19:50:01,0,39,-25,0,966
08/04/99,19:55:01,14,26,-25,0,966
08/04/99,20:00:01,2,15,-25,0,966
08/04/99,20:05:01,66,352,-25,0,966
08/04/99,20:10:01,47,2,-25,0,966
08/04/99,20:15:01,35,13,-25,0,966
08/04/99,20:20:01,6,2,-25,0,966
08/04/99,20:25:01,28,3,-25,0,966
08/04/99,20:30:01,0,33,-25,0,966
08/04/99,20:35:01,0,359,-25,0,966
08/04/99,20:40:01,0,359,-25,0,966
08/04/99,20:45:01,4,359,-25,0,966
08/04/99,20:50:01,32,12,-25,0,966
08/04/99,20:55:01,38,12,-25,0,966
08/04/99,21:00:01,22,12,-25,0,966
08/04/99,21:05:01,0,12,-25,0,966
08/04/99,21:10:01,22,12,-25,0,966
08/04/99,21:15:01,61,13,-25,0,966
08/04/99,21:20:01,63,13,-25,0,966
08/04/99,21:25:01,75,13,-25,0,966
08/04/99,21:30:01,75,13,-25,0,966
08/04/99,21:35:01,83,13,-25,0,966
08/04/99,21:40:01,83,13,-25,0,966
08/04/99,21:45:01,59,13,-25,0,966
08/04/99,21:50:01,24,13,-25,0,966
08/04/99,21:55:01,14,13,-25,0,966
08/04/99,22:00:01,1,13,-25,0,966
08/04/99,22:05:01,1,261,-25,0,966
08/04/99,22:10:01,8,313,-25,0,966
08/04/99,22:15:01,8,303,-25,0,966
08/04/99,22:20:01,8,335,-25,0,966
08/04/99,22:25:01,8,335,-25,0,966
08/04/99,22:30:01,28,347,-25,0,966
08/04/99,22:35:01,4,347,-25,0,966
08/04/99,22:40:01,4,347,-25,0,966
08/04/99,22:45:01,36,135,-25,0,966
08/04/99,22:50:01,0,49,-25,0,966
08/04/99,22:55:01,0,27,-25,0,966
08/04/99,23:00:01,4,279,-23,0,966
08/04/99,23:05:01,4,199,-23,0,966
08/04/99,23:10:01,4,166,-23,0,966
08/04/99,23:15:01,4,79,-23,0,966
08/04/99,23:20:01,0,199,-23,0,966
08/04/99,23:25:01,0,213,-23,0,966
08/04/99,23:30:01,0,221,-23,0,966
08/04/99,23:35:01,8,221,-23,0,966
08/04/99,23:40:01,17,221,-23,0,966
08/04/99,23:45:01,4,221,-23,0,966
08/04/99,23:50:01,17,221,-23,0,966
08/04/99,23:55:01,24,221,-23,0,966
08/05/99,00:00:01,0,209,-23,0,966
